Location: Bamazo
(6.7448°N, 10.8189°W)
Time: 17:30:48
(UTC+00:00)

DELTA-4 R/B - Pass Details

Date: 18 September 2020
Orbit: 465 x 34492 km, 13.4° (Epoch: 23 October)

Event Time Altitude Azimuth Distance (km) Brightness Sun altitude
Rises 18:33:00 0° 288° (WNW) 2,724 7.7 1.2°
Reaches altitude 10° 18:34:24 10° 292° (WNW) 2,078 6.8 0.9°
Maximum altitude 18:38:26 64° 15° (NNE) 1,283 4.2 -0.1°
Drops below altitude 10° 18:58:19 10° 96° (E) 9,184 7.8 -5.1°
Enters shadow 19:04:15 - 97° (E) 11,236 8.2 -6.6°
